Retour au catalogue

STARLINK-37131

ActifCommunicationsSSO
NORAD 68605·PAYLOAD·🇺🇸 United States

Lancé Apr 5, 2026 depuis Vandenberg Space Force Base

Loading…

Prochains Passages (prochaines 24 heures)

TLE

FraisSource: CelesTrak SupGP

Époque: Sep 14, 2026, 21:26 UTC

1 68605C 26073D   26257.89354167  .00078566  00000+0  24402-2 0  2570
2 68605  97.2849  95.9187 0001731  92.8467  25.9915 15.33382185    14

Suivez STARLINK-37131 en temps réel avec AllMySat

Download on the App Store